Track SBIRS GEO 4 (USA 282) now! SBIRS GEO 4 (USA 282) is classified as:
1 43162U 18009A 25023.07804372 .00000152 00000-0 00000+0 0 9994 2 43162 2.1608 345.4985 0002310 318.4254 47.4192 1.00272346 25724